Weather History for KODO - May, 2013

Change the Weather History Date:

Wednesday, May 1, 2013

  Actual Average (KMAF) Record (KMAF)
Temperature  
Mean Temperature 75 °F 69 °F  
Max Temperature 91 °F 84 °F 99 °F (2009)
Min Temperature 53 °F 55 °F 34 °F (1970)
Degree Days  
Heating Degree Days 0 1  
Month to date heating degree days 1  
Since 1 July heating degree days 2657  
Cooling Degree Days 10 5  
Month to date cooling degree days 5  
Year to date cooling degree days 113  
Growing Degree Days 25 (Base 50)    
Moisture  
Dew Point 43 °F    
Average Humidity 36    
Maximum Humidity 78    
Minimum Humidity 9    
Precipitation  
Precipitation 0.00 in 0.03 in 0.41 in (1959)
Month to date precipitation 0.03  
Year to date precipitation 2.55  
Snow  
Snow 0.00 in - - ()
Month to date snowfall  
Since 1 July snowfall  
Snow Depth -    
Sea Level Pressure  
Sea Level Pressure 29.76 in    
Wind  
Wind Speed 16 mph (NE)    
Max Wind Speed 30 mph    
Max Gust Speed 40 mph    
Visibility 9 miles    
Events      
T = Trace of Precipitation, MM = Missing Value Source: NWS Daily Summary

Daily Weather History Graph

Daily Weather History Graph

Search for Another Location

Airport or City:

Trip Planner

Search our weather history database for the weather conditions in past years. The results will help you decide how hot, cold, wet, or windy it might be!

Date:

Astronomy

May. 01, 2013 Rise Set
Actual Time 7:03 AM CDT 8:30 PM CDT
Civil Twilight 6:37 AM CDT 8:56 PM CDT
Nautical Twilight 6:06 AM CDT 9:27 PM CDT
Astronomical Twilight 5:34 AM CDT 9:59 PM CDT
Moon 1:40 AM CDT (5/1) 12:44 PM CDT (5/1)
Length of Visible Light 14h 18m
Length of Day
13h 26m
Waning Gibbous, 59% of the Moon is Illuminated
May 1
Waning Gibbous
May 2
Last Quarter
May 9
New
May 17
First Quarter
May 24
Full

Hourly Weather History & Observations

Time (CDT) Temp. Dew Point Humidity Pressure Visibility Wind Dir Wind Speed Gust Speed Precip Events Conditions
12:53 AM 75.9 °F 50.0 °F 40% 29.64 in 10.0 mi East 10.4 mph - N/A   Clear
1:53 AM 77.0 °F 46.0 °F 33% 29.65 in 10.0 mi ESE 21.9 mph 29.9 mph N/A   Clear
2:53 AM 73.9 °F 51.1 °F 45% 29.63 in 10.0 mi SE 19.6 mph 24.2 mph N/A   Clear
3:53 AM 71.1 °F 53.1 °F 53% 29.62 in 10.0 mi SE 11.5 mph - N/A   Clear
4:53 AM 70.0 °F 55.0 °F 59% 29.63 in 10.0 mi SSE 16.1 mph 23.0 mph N/A   Clear
5:53 AM 68.0 °F 57.0 °F 68% 29.64 in 10.0 mi SSE 12.7 mph - N/A   Clear
6:53 AM 66.0 °F 57.0 °F 73% 29.66 in 10.0 mi South 12.7 mph - N/A   Clear
7:53 AM 64.9 °F 57.9 °F 78% 29.70 in 10.0 mi SSW 8.1 mph - N/A   Clear
8:53 AM 69.1 °F 59.0 °F 70% 29.72 in 10.0 mi SSW 13.8 mph - N/A   Clear
9:53 AM 73.9 °F 55.9 °F 53% 29.72 in 10.0 mi SW 8.1 mph - N/A   Clear
10:53 AM 82.9 °F 46.0 °F 27% 29.72 in 10.0 mi WNW 8.1 mph - N/A   Clear
11:53 AM 88.0 °F 32.0 °F 14% 29.73 in 10.0 mi NNW 15.0 mph 23.0 mph N/A   Clear
12:53 PM 89.1 °F 24.1 °F 9% 29.74 in 10.0 mi North 19.6 mph 26.5 mph N/A   Clear
1:53 PM 87.1 °F 35.1 °F 16% 29.76 in 6.0 mi North 21.9 mph 29.9 mph N/A   Haze
2:53 PM 88.0 °F 32.0 °F 14% 29.77 in 5.0 mi NNE 21.9 mph - N/A   Haze
4:11 PM 87.8 °F 33.8 °F 15% 29.91 in 6.0 mi NNE 17.3 mph 31.1 mph N/A   Haze
4:20 PM 87.8 °F 33.8 °F 15% 29.92 in 7.0 mi North 17.3 mph 26.5 mph N/A   Overcast
4:46 PM 87.8 °F 33.8 °F 15% 29.91 in 8.0 mi NNE 18.4 mph 26.5 mph N/A   Overcast
4:53 PM 88.0 °F 35.1 °F 15% 29.77 in 8.0 mi NE 19.6 mph 27.6 mph N/A   Overcast
5:53 PM 87.1 °F 36.0 °F 16% 29.77 in 10.0 mi NNE 18.4 mph 27.6 mph N/A   Overcast
6:53 PM 84.9 °F 37.0 °F 18% 29.77 in 10.0 mi NE 19.6 mph 27.6 mph N/A   Partly Cloudy
7:53 PM 81.0 °F 37.9 °F 21% 29.78 in 10.0 mi ENE 19.6 mph 28.8 mph N/A   Clear
8:53 PM 77.0 °F 41.0 °F 28% 29.79 in 10.0 mi NE 13.8 mph - N/A   Clear
9:53 PM 73.0 °F 43.0 °F 34% 29.85 in 10.0 mi NE 23.0 mph 34.5 mph N/A   Clear
10:53 PM 61.0 °F 41.0 °F 48% 29.96 in 8.0 mi NNE 24.2 mph 34.5 mph N/A   Scattered Clouds
11:53 PM 53.1 °F 37.9 °F 57% 30.01 in 9.0 mi North 29.9 mph 40.3 mph N/A   Partly Cloudy